ContactaLinksHome
    
DADES METEOROLÒGIQUES DE LES ÚLTIMES 24 HORES
 

Taire  Temperatura de l'aire  (ºC)
HumitatR  Humitat relativa de l'aire (%)
Pluja  Litres de pluja per metre cuadrat caiguts en 10 minuts (l/m²)
VelVent  Velocitat mitjana del vent (m/s)
DirVent  Direcció del vent  (º)
RadSolar  Intensitat de Radiació solar (w/m²)
PressAtm  Pressió atmosfèrica (mb)
  ***Dades sense verificar
DataTaireHumitatRPlujaVelVentDirVentRadSolarPressAtm
18/11/2017 0:40:0012.1580,03.230801018
18/11/2017 0:30:0012.2570,03.429901018
18/11/2017 0:20:0012.3570,03.530201018
18/11/2017 0:10:0012.4560,03.530301018
18/11/2017 0:00:0012.6560,03.131201018
17/11/2017 23:50:0012.6550,03.329801019
17/11/2017 23:40:0012.7560,03.330401019
17/11/2017 23:30:0012.7560,03.331201019
17/11/2017 23:20:0012.7560,04.031401019
17/11/2017 23:10:0012.8560,03.832001019
17/11/2017 23:00:0013.0540,03.831801019
17/11/2017 22:50:0013.0530,03.231501019
17/11/2017 22:40:0013.1530,03.432301019
17/11/2017 22:30:0013.2530,03.629701019
17/11/2017 22:20:0013.3510,03.231501019
17/11/2017 22:10:0013.5490,03.332301019
17/11/2017 22:00:0013.7470,03.529701019
17/11/2017 21:50:0013.7460,03.430301019
17/11/2017 21:40:0013.7450,03.731401019
17/11/2017 21:30:0013.8440,04.031101019
17/11/2017 21:20:0013.8440,03.932101019
17/11/2017 21:10:0013.8440,03.831801018
17/11/2017 21:00:0014.1430,03.432801018
17/11/2017 20:50:0014.2420,03.831801018
17/11/2017 20:40:0014.3420,03.933101018
17/11/2017 20:30:0014.6410,03.233201018
17/11/2017 20:20:0014.9400,03.032801018
17/11/2017 20:10:0015.1380,03.834101018
17/11/2017 20:00:0015.1390,03.833501018
17/11/2017 19:50:0015.1400,03.933901018
17/11/2017 19:40:0015.2410,04.032001018
17/11/2017 19:30:0015.4410,03.632401018
17/11/2017 19:20:0015.8420,02.432101018
17/11/2017 19:10:0016.1420,02.132301018
17/11/2017 19:00:0015.1530,01.433101018
17/11/2017 18:50:0014.9540,01.034001018
17/11/2017 18:40:0015.1530,02.033601018
17/11/2017 18:30:0015.2530,02.432801018
17/11/2017 18:20:0015.4530,02.332901018
17/11/2017 18:10:0015.4530,02.333501018
17/11/2017 18:00:0015.5530,02.233401018
17/11/2017 17:50:0016.0540,01.833601018
17/11/2017 17:40:0016.0530,01.033501018
17/11/2017 17:30:0016.4520,00.832801017
17/11/2017 17:20:0017.1510,01.1401017
17/11/2017 17:10:0017.2480,00.735701017
17/11/2017 17:00:0017.3480,00.927401017
17/11/2017 16:50:0017.4480,00.725601017
17/11/2017 16:40:0017.6500,01.622701017
17/11/2017 16:30:0017.7520,03.122051017
17/11/2017 16:20:0017.9520,03.5219131017
17/11/2017 16:10:0018.0490,02.6216351017
17/11/2017 16:00:0018.0510,03.8222591017
17/11/2017 15:50:0017.9530,05.1208821017
17/11/2017 15:40:0017.9540,05.42131051017
17/11/2017 15:30:0017.9530,05.52041361017
17/11/2017 15:20:0017.8520,05.62101181017
17/11/2017 15:10:0017.8510,05.52081391017
17/11/2017 15:00:0017.8520,05.22092141017
17/11/2017 14:50:0017.7510,05.32172341017
17/11/2017 14:40:0017.6530,05.52182621017
17/11/2017 14:30:0017.4520,06.02122891017
17/11/2017 14:20:0017.3550,05.72093131017
17/11/2017 14:10:0017.3540,05.82113341017
17/11/2017 14:00:0017.4520,05.32033531017
17/11/2017 13:50:0017.4490,04.72073701017
17/11/2017 13:40:0017.8480,04.81953881017
17/11/2017 13:30:0017.8420,03.81884061018
17/11/2017 13:20:0018.0400,03.11854231018
17/11/2017 13:10:0018.4410,02.12064411018
17/11/2017 13:00:0017.8460,03.02154501018
17/11/2017 12:50:0017.0450,03.62074621018
17/11/2017 12:40:0018.0430,03.62024701018
17/11/2017 12:30:0018.4350,02.12144831018
17/11/2017 12:20:0017.9290,02.32914881018
17/11/2017 12:10:0017.8280,03.03014611018
17/11/2017 12:00:0017.7280,02.42605031018
17/11/2017 11:50:0017.2290,02.32765171018
17/11/2017 11:40:0016.7320,02.92945131019
17/11/2017 11:30:0016.3310,03.52975201019
17/11/2017 11:20:0015.8330,03.52905041019
17/11/2017 11:10:0015.3340,03.52905031019
17/11/2017 11:00:0015.0350,03.12904981019
17/11/2017 10:50:0014.7350,03.13224691019
17/11/2017 10:40:0014.5360,03.32974841019
17/11/2017 10:30:0014.1350,03.03154781019
17/11/2017 10:20:0013.8360,04.13094661019
17/11/2017 10:10:0013.4370,04.43134521019
17/11/2017 10:00:0012.8380,04.63244391019
17/11/2017 9:50:0012.7390,04.03204221019
17/11/2017 9:40:0012.6410,02.93194061019
17/11/2017 9:30:0012.1430,03.33233901019
17/11/2017 9:20:0011.7430,03.32983711019
17/11/2017 9:10:0011.4460,03.53043511019
17/11/2017 9:00:0011.0470,03.23223281019
17/11/2017 8:50:0010.4480,03.33183061019
17/11/2017 8:40:0010.4470,03.13252831019
17/11/2017 8:30:0010.1470,04.13222591019
17/11/2017 8:20:009.8470,04.13142341019
17/11/2017 8:10:009.6480,03.13252061019
17/11/2017 8:00:009.6470,03.63241791019
17/11/2017 7:50:009.6490,03.43071511019
17/11/2017 7:40:009.5480,04.63131231019
17/11/2017 7:30:009.5480,05.1318961019
17/11/2017 7:20:009.3490,05.9309691019
17/11/2017 7:10:008.9500,06.2322441019
17/11/2017 7:00:008.7510,04.9309221019
17/11/2017 6:50:009.0500,05.431961019
17/11/2017 6:40:009.1490,05.732111019
17/11/2017 6:30:009.3490,05.731901019
17/11/2017 6:20:009.3490,05.031001019
17/11/2017 6:10:009.4490,04.931501019
17/11/2017 6:00:009.3490,05.531501019
17/11/2017 5:50:009.3500,05.731901019
17/11/2017 5:40:009.3510,05.130901019
17/11/2017 5:30:009.4510,04.431701019
17/11/2017 5:20:009.5520,04.232501019
17/11/2017 5:10:009.4560,04.031601019
17/11/2017 5:00:009.1590,02.330001019
17/11/2017 4:50:008.8600,02.531601019
17/11/2017 4:40:008.8590,03.531901019
17/11/2017 4:30:009.1590,03.631301019
17/11/2017 4:20:009.2600,03.332301019
17/11/2017 4:10:009.2610,03.931801019
17/11/2017 4:00:009.1630,03.631501019
17/11/2017 3:50:008.9640,04.132401019
17/11/2017 3:40:009.2640,03.531301019
17/11/2017 3:30:009.4640,03.132201019
17/11/2017 3:20:009.4650,01.832201019
17/11/2017 3:10:009.3660,01.831201019
17/11/2017 3:00:009.1660,01.731601019
17/11/2017 2:50:008.9660,02.332101019
17/11/2017 2:40:009.0670,02.731501019
17/11/2017 2:30:009.3660,03.332301019
17/11/2017 2:20:009.6650,03.131701020
17/11/2017 2:10:009.8640,02.132301020
17/11/2017 2:00:009.8640,02.132601020
17/11/2017 1:50:009.9640,02.433901020
17/11/2017 1:40:009.9640,02.433201020
17/11/2017 1:30:009.9640,02.332601020
17/11/2017 1:20:0010.0650,02.029801020
17/11/2017 1:10:0010.2640,01.427301020
17/11/2017 1:00:0010.3640,01.026801020
17/11/2017 0:50:0010.6640,01.629301020

ÚLTIMES FOTOS WEBCAM
Imatges del Pont
ÚLTIMES DADES

18/11/2017  
1:40h Local  (0:40 GMT)
 
 Velocitat mitjana del Vent
   3,2 m/s
 Direcció del Vent
   308º
 Humitat Relativa
   58 %
 Temperatura Aparent
   12,1 ºC
 Pluja Acumulada
   0,0 l/m²
      
 Temperatura de l'aigua    N/A
 Alçada d'ona    N/A
 Direcció d'ona    N/A
 Velocitat del corrent    N/A
 Direcció del corrent    N/A